GFSGL_sfc_30mbdewp_111.txt.gz
Dewpoint
55 56 56 56 56 56 56 56 56 57 57 57 57 56 56 56 57 56 56 55 55 54 55 54 53 54 54 54 55 54 54 53 51 51 51 52 50 49 45 45 44 44 44
55 55 55 56 56 55 55 55 56 56 56 56 56 56 56 56 55 55 55 55 55 54 54 54 53 53 53 53 54 53 53 53 53 51 53 45 40 40 41 38 39 36 37
54 54 55 55 56 55 55 55 55 55 55 55 55 55 55 55 55 55 55 54 54 54 53 53 51 50 51 48 47 48 47 46 45 46 43 39 38 35 35 34 35 33 33
53 53 54 55 55 55 55 55 54 55 55 54 54 55 55 55 55 55 54 54 52 47 42 40 39 40 41 41 40 39 40 40 38 38 36 33 32 33 32 28 28 27 28
54 53 52 54 54 55 55 55 55 54 54 54 54 53 53 53 53 54 53 52 45 39 36 35 35 35 34 35 34 34 35 34 33 32 31 29 27 27 25 26 24 24 27
54 54 53 53 53 54 54 54 55 55 54 54 52 50 49 47 47 51 49 44 39 36 34 33 33 33 32 32 31 31 31 30 29 27 27 25 25 25 25 23 21 19 19
53 53 54 54 53 52 53 53 53 50 47 45 43 42 41 40 42 42 40 37 35 33 32 32 31 32 31 30 30 30 30 29 29 27 23 23 20 20 21 19 18 17 15
53 53 53 54 53 53 52 48 45 42 40 38 36 35 35 35 36 35 33 32 31 31 31 31 30 30 29 28 26 27 27 26 25 24 22 21 20 18 17 16 15 14 12
54 54 53 53 52 48 44 40 38 37 35 34 33 33 32 32 32 32 31 29 28 27 27 28 28 29 30 28 24 23 23 21 19 18 17 16 14 13 12 11 9 8 6
54 54 54 50 46 42 39 37 35 34 32 32 31 31 31 30 31 31 29 27 26 26 27 28 28 27 25 24 22 20 17 15 15 13 12 11 9 9 10 10 10 9 8
44 46 46 44 41 38 36 35 34 32 31 30 30 30 30 30 30 30 28 26 25 25 24 24 25 23 21 19 18 17 15 13 11 9 8 9 8 8 9 8 8 10 8
38 37 37 36 35 34 33 32 31 30 29 28 27 27 28 29 30 29 28 28 27 24 23 23 23 20 17 15 14 12 11 10 10 8 8 6 6 6 5 5 5 7 6
34 33 32 32 32 32 31 30 29 28 27 26 26 25 26 27 27 28 27 26 24 23 22 21 19 17 15 15 14 12 10 9 8 7 6 6 6 5 3 4 5 3 3
31 31 30 29 28 28 28 29 27 25 24 24 23 22 23 23 23 23 23 23 22 20 18 17 16 14 12 11 10 9 9 8 7 6 6 5 4 5 4 4 4 3 4
25 25 24 23 23 23 23 22 22 23 22 22 22 22 21 21 22 21 20 19 18 17 16 14 12 10 9 8 7 6 6 6 6 5 5 3 2 3 2 2 3 3 3
23 22 22 22 22 22 21 22 24 24 25 25 26 24 25 24 23 22 21 19 18 15 12 10 9 8 7 6 5 5 6 5 5 4 4 2 -0 1 1 1 2 2 2
21 21 21 21 21 21 20 19 19 23 25 25 24 24 23 22 21 20 18 16 15 11 8 7 7 7 6 6 4 4 4 5 4 3 1 0 -1 -1 -0 0 0 0 -0
21 21 20 20 20 20 19 19 20 18 17 19 22 22 21 19 17 15 14 11 9 9 7 6 6 6 4 3 3 3 2 1 1 1 -0 -1 -3 -2 -2 -2 -1 -1 -1
19 19 18 18 18 18 18 18 18 17 16 15 16 17 18 16 15 14 11 8 7 6 5 5 5 3 2 1 -0 -1 -1 -1 -1 -1 -2 -2 -3 -3 -3 -2 -2 -3 -3
19 19 19 18 17 17 17 15 14 13 11 10 9 9 9 7 5 5 6 6 6 6 5 4 3 1 1 -0 -2 -2 -2 -2 -1 -1 -2 -3 -3 -4 -4 -3 -3 -4 -3
18 17 17 16 15 15 13 12 12 11 10 9 8 8 7 5 4 3 3 3 3 3 2 2 0 1 1 -1 -1 -2 -2 -3 -2 -1 -2 -2 -4 -5 -3 -3 -3 -4 -3
17 16 15 14 13 13 12 12 11 10 8 7 7 6 4 3 2 2 1 0 -0 1 2 1 1 1 2 1 0 -1 -1 -2 -1 -1 -3 -4 -4 -3 -4 -4 -4 -4 -3
16 13 13 12 12 11 10 9 9 7 7 6 5 4 2 1 1 1 0 -1 -1 -1 -0 1 2 2 0 -1 -1 -0 0 1 1 -0 -3 -4 -4 -4 -4 -5 -4 -4 -3
13 12 12 11 10 9 8 7 7 6 4 3 2 2 0 -1 -2 -3 -4 -4 -2 -2 -2 -1 -1 -1 -0 -1 -2 -2 2 2 0 -3 -4 -5 -6 -4 -4 -4 -4 -4 -3
12 11 10 9 8 7 6 6 5 4 3 3 2 1 -0 -1 -3 -4 -4 -4 -5 -5 -4 -3 -3 -1 -2 -2 -1 1 0 -1 -3 -5 -5 -5 -6 -6 -5 -4 -4 -3 -3
10 9 9 8 7 6 4 4 3 3 2 2 1 -0 -1 -2 -4 -5 -5 -5 -5 -4 -3 -4 -3 -3 -2 -1 0 -0 -4 -4 -5 -5 -5 -5 -6 -6 -5 -5 -4 -4 -2

GFSGL_sfc_30mbdewp_114.txt.gz
Dewpoint
55 55 56 56 56 56 56 56 57 58 58 58 58 58 58 57 57 56 55 55 54 54 55 54 54 55 54 55 55 54 54 53 51 52 52 47 42 42 39 40 38 39 39
54 55 56 56 56 56 56 56 57 57 57 57 57 58 57 57 57 56 55 55 55 54 54 54 54 54 54 54 54 53 54 53 52 51 47 40 36 39 37 36 34 32 38
55 55 55 55 55 55 55 56 56 56 56 56 56 56 57 57 57 56 56 55 55 55 54 54 54 54 53 52 52 51 49 47 46 47 38 36 35 33 33 33 31 30 33
54 55 54 55 55 55 55 55 55 55 55 55 55 55 55 56 56 56 55 55 51 48 46 45 45 47 48 46 44 43 42 40 39 39 34 32 31 30 29 26 26 26 29
54 53 53 55 56 55 55 55 55 55 55 55 55 55 55 55 55 55 53 48 43 39 37 36 36 37 37 37 37 37 37 35 33 31 29 27 26 26 24 23 20 21 26
53 53 52 54 55 55 54 54 54 54 54 54 53 52 51 51 53 52 47 42 39 36 34 33 33 32 32 31 31 31 32 31 29 27 26 22 21 22 21 19 16 15 12
53 53 52 54 53 54 54 54 54 50 49 47 46 46 45 45 47 45 41 38 36 34 32 31 31 31 30 30 29 27 27 26 25 23 21 21 17 18 17 14 13 11 8
53 53 53 53 53 53 53 48 45 43 42 40 39 38 37 36 38 37 35 34 33 32 32 31 30 29 29 27 25 24 23 22 22 21 19 17 16 13 13 12 10 9 8
53 53 54 54 52 49 46 43 40 38 36 35 34 34 33 32 33 33 32 30 29 29 30 29 29 28 29 26 23 20 19 19 19 16 14 13 12 11 10 9 7 6 4
53 53 53 51 49 46 42 39 36 35 33 32 31 31 32 31 32 31 30 29 27 26 26 27 26 26 25 23 21 19 17 15 13 11 8 7 7 7 8 7 8 6 5
48 49 49 47 44 40 37 36 34 32 31 30 29 30 30 30 30 30 29 27 25 23 22 22 23 23 21 20 19 17 16 15 14 12 10 9 7 5 4 5 6 7 5
39 39 38 37 37 36 34 33 32 31 29 28 28 28 29 30 30 29 27 25 24 21 20 21 22 20 19 18 17 16 15 15 12 9 6 4 5 4 2 3 3 3 3
34 33 33 33 33 32 31 30 29 29 28 27 26 26 26 27 27 27 25 24 22 21 21 21 19 18 16 16 14 13 12 11 9 7 5 3 3 3 1 2 2 2 3
29 29 29 30 29 29 29 29 28 28 27 25 23 21 22 23 23 24 23 23 22 19 18 16 15 15 13 12 12 11 10 9 7 5 4 2 2 2 1 2 2 3 2
25 25 25 24 24 24 24 24 24 24 24 23 22 22 20 19 20 20 19 18 17 16 15 14 12 11 10 9 8 7 7 5 4 3 2 0 -0 1 0 1 2 1 0
25 24 24 23 23 23 23 24 27 26 26 25 24 23 23 23 23 22 21 19 18 15 11 9 9 8 7 5 5 5 4 3 2 1 1 -0 -0 0 -0 0 0 -0 -1
23 23 23 23 22 22 22 21 21 25 26 26 25 25 23 24 22 21 19 17 15 11 9 8 7 6 6 4 4 3 3 3 1 0 -0 -1 -2 -1 -1 -1 -1 -2 -2
22 22 22 22 22 21 21 21 20 19 18 20 24 23 23 21 19 17 16 13 10 9 7 6 6 6 4 3 2 2 1 0 0 -0 -1 -2 -3 -2 -3 -2 -2 -2 -3
19 19 20 20 20 20 20 19 18 18 17 16 17 18 18 16 14 12 10 8 7 6 5 4 4 3 2 1 -0 -1 -1 -1 -2 -2 -2 -2 -5 -4 -4 -3 -3 -4 -4
19 19 19 18 17 16 16 15 14 13 12 11 10 10 8 7 6 7 7 7 6 5 4 2 2 2 1 -1 -2 -2 -2 -2 -1 -1 -3 -4 -5 -5 -4 -4 -4 -4 -4
18 17 17 17 16 15 14 13 12 11 9 8 8 8 6 5 5 4 4 4 4 3 2 1 1 1 -1 -1 -1 -2 -2 -3 -2 -2 -3 -3 -5 -5 -4 -3 -3 -3 -3
17 16 15 14 14 13 12 11 10 8 7 6 6 5 5 4 3 2 1 1 1 2 2 1 2 2 1 1 -0 -2 -2 -1 -2 -3 -3 -5 -5 -4 -4 -4 -4 -4 -4
15 14 13 12 12 11 10 9 8 6 5 5 4 3 2 1 1 0 -1 -0 1 1 1 1 1 1 -1 -2 -2 -1 -0 -0 -1 -3 -4 -6 -5 -5 -5 -6 -5 -5 -4
14 13 11 11 10 9 8 7 6 4 3 2 1 1 0 -0 -1 -2 -3 -3 -2 -3 -2 -2 -1 -1 -0 -2 -3 -2 1 -0 -1 -4 -6 -6 -6 -5 -6 -5 -4 -4 -4
11 11 10 9 8 7 6 5 4 3 2 2 0 -1 -2 -3 -3 -4 -4 -4 -4 -4 -3 -3 -3 -3 -3 -2 -2 -1 -2 -4 -5 -6 -6 -6 -6 -7 -7 -6 -5 -4 -4
9 8 7 7 6 5 3 2 2 1 1 0 -1 -1 -2 -3 -4 -5 -6 -5 -4 -4 -4 -5 -4 -3 -3 -2 -1 -2 -5 -5 -6 -7 -6 -6 -7 -7 -7 -6 -5 -4 -3

GFSGL_sfc_30mbdewp_117.txt.gz
Dewpoint
56 56 56 56 56 56 56 57 57 57 58 58 58 59 58 57 56 55 53 53 52 53 53 52 53 54 54 54 54 54 53 53 51 52 52 45 41 40 40 39 38 38 36
55 56 55 56 56 55 56 56 57 58 58 58 58 58 58 58 57 56 54 53 52 53 53 53 54 54 54 54 54 53 53 54 52 51 46 38 37 36 36 33 33 36 34
55 55 55 55 55 55 56 56 57 57 57 57 57 57 57 58 57 56 55 54 54 53 53 53 53 54 53 54 54 54 53 52 51 51 39 37 33 34 32 31 30 32 29
55 54 54 55 55 55 56 56 56 56 56 56 56 57 57 57 57 56 56 55 55 55 54 54 54 54 53 52 51 49 47 45 44 41 35 31 31 30 28 25 24 25 27
54 54 54 55 56 55 55 55 56 56 56 56 55 55 56 56 56 56 54 48 45 42 40 39 39 39 39 40 42 41 41 39 37 34 30 27 26 23 22 21 21 22 25
54 54 54 55 55 55 55 55 55 55 55 54 54 53 53 51 49 47 46 42 39 37 34 33 33 33 32 31 30 29 32 33 30 26 23 21 21 20 19 16 14 13 13
53 54 54 55 55 55 55 54 54 52 50 48 47 46 45 44 44 42 39 38 35 33 32 31 30 30 29 27 26 25 24 24 24 23 21 18 15 16 15 11 10 8 6
53 53 53 54 54 54 54 50 48 46 45 43 40 39 38 37 38 36 35 34 32 32 31 30 29 28 26 25 23 22 21 20 19 19 17 16 14 12 10 11 10 10 6
53 53 52 53 53 52 48 45 42 40 37 36 35 34 33 33 34 34 33 31 29 29 29 29 28 27 26 24 21 20 19 19 19 17 16 15 15 15 13 14 8 7 5
53 53 53 53 51 47 43 40 37 35 33 32 32 32 32 31 33 32 31 30 27 26 27 27 26 25 23 21 19 18 16 13 11 12 13 13 11 13 13 11 10 7 4
46 53 52 50 46 42 39 36 34 32 31 30 30 30 30 31 31 31 29 27 25 23 23 23 25 23 21 19 18 16 14 15 15 12 11 11 9 5 5 6 7 7 4
38 41 41 40 39 37 35 34 33 31 30 29 28 28 29 29 29 28 26 25 24 21 21 22 22 20 19 18 17 17 16 14 13 11 9 8 7 2 0 1 2 2 2
34 33 34 34 34 34 33 32 31 30 29 28 27 26 25 26 26 26 25 23 22 21 21 21 19 18 17 16 15 14 13 12 11 9 5 2 1 0 1 3 3 2 4
29 30 31 31 31 31 31 31 30 29 28 26 25 23 23 23 23 23 23 22 21 20 18 16 15 14 14 13 12 12 10 7 6 4 2 1 2 2 2 2 3 2 4
27 27 27 27 26 26 26 27 27 28 27 24 23 22 21 20 21 20 18 17 16 16 15 14 13 12 10 10 8 5 4 3 4 4 3 2 1 1 2 3 3 3 2
25 25 25 25 26 26 25 25 27 27 26 25 24 22 22 22 22 21 20 19 18 16 14 11 10 9 8 7 6 4 3 3 2 3 3 2 3 3 3 3 3 3 3
24 24 25 25 25 24 23 22 22 25 26 26 25 25 24 24 23 22 21 18 14 10 9 8 8 7 6 4 4 3 3 2 2 2 2 2 3 3 3 3 3 3 2
23 23 23 24 23 23 23 22 22 21 20 21 24 24 24 23 22 19 16 12 9 7 6 6 6 6 3 2 2 1 1 2 2 2 2 2 2 3 3 2 2 2 1
20 21 22 21 21 21 21 20 20 19 18 18 19 21 21 18 16 12 9 8 6 5 4 4 5 4 3 2 3 3 3 3 3 3 2 1 1 1 2 2 2 1 0
19 19 19 18 17 17 17 16 15 14 14 13 13 12 11 10 9 9 9 8 6 4 3 2 2 3 3 3 3 3 3 3 3 2 2 2 1 2 2 2 2 2 1
18 18 18 18 17 17 16 14 14 12 11 10 10 9 7 7 7 7 6 6 5 4 4 3 3 3 3 3 2 3 2 3 2 1 1 1 0 1 2 3 2 2 1
18 17 17 16 15 14 13 12 11 10 9 8 7 6 6 6 5 5 5 5 5 4 4 3 3 3 3 2 3 3 2 2 2 1 1 -1 -0 1 2 2 2 2 2
16 15 14 14 13 12 11 10 9 8 7 6 4 4 4 4 3 3 4 4 4 4 4 4 3 2 3 3 3 3 2 2 2 1 0 -0 -0 1 1 2 2 2 2
15 14 13 12 12 10 9 8 6 5 4 4 4 3 2 2 2 2 3 3 3 4 4 3 3 2 2 2 2 2 2 2 2 0 -2 -2 -0 -0 0 0 1 1 1
13 12 11 10 9 8 7 6 5 4 4 3 2 2 1 1 1 1 2 2 2 2 1 1 2 1 0 0 1 1 -0 -1 -2 -3 -2 -1 -1 -2 -1 -1 -0 1 1
11 10 10 9 8 7 5 4 4 3 2 2 2 2 1 0 0 0 0 -0 -0 -0 -0 -0 -0 -1 -0 0 0 -0 -3 -3 -3 -4 -3 -2 -1 -1 -1 -1 -1 0 1

GFSGL_sfc_30mbdewp_120.txt.gz
Dewpoint
56 57 58 57 57 57 57 57 58 58 58 59 59 59 58 57 56 54 54 54 52 53 53 53 53 55 55 55 55 54 53 52 49 53 48 44 41 40 38 40 38 34 32
56 57 58 57 56 56 56 56 56 55 57 57 58 58 59 57 56 55 54 54 53 52 53 53 53 54 54 55 54 53 53 54 51 50 44 37 37 36 35 34 36 35 31
56 57 57 57 55 55 54 55 57 57 57 58 58 58 58 58 57 56 55 54 53 52 52 52 53 53 53 53 53 53 53 53 53 52 39 36 33 34 33 31 31 32 29
56 56 57 56 53 53 55 56 56 56 56 57 58 58 57 58 58 57 56 55 54 53 53 53 53 53 52 53 53 53 53 51 47 41 34 32 30 29 27 27 25 28 26
55 56 55 54 55 55 56 56 56 56 56 56 57 57 56 57 57 57 56 55 54 49 45 44 44 46 47 49 50 47 47 42 38 34 30 27 26 23 22 20 19 23 22
55 55 54 54 55 55 55 55 56 56 56 56 55 53 51 48 50 50 48 44 40 38 35 34 33 33 32 32 32 32 36 37 33 28 25 23 22 21 20 18 19 18 17
51 55 54 54 54 55 55 55 55 54 52 49 47 45 42 40 41 40 39 37 36 34 33 31 30 30 29 27 27 26 25 26 27 25 21 19 17 17 16 15 14 11 12
48 55 54 53 53 54 54 54 51 48 46 43 40 39 37 36 36 35 34 33 32 31 31 30 28 27 27 25 23 21 20 19 19 18 17 15 14 13 13 13 14 12 8
47 54 54 53 53 54 51 48 44 42 39 38 36 36 35 34 34 33 32 31 30 29 29 28 28 27 26 25 22 20 19 19 18 17 17 17 16 16 15 14 12 13 9
39 49 54 53 54 50 46 42 40 37 35 34 33 33 33 33 33 33 31 30 28 26 26 26 25 24 22 21 19 17 15 15 14 12 13 13 10 10 9 8 10 9 6
37 40 53 53 50 45 41 38 36 34 32 31 31 32 32 32 32 32 30 28 27 25 24 24 24 21 20 17 16 15 14 15 14 13 12 10 8 7 6 5 4 7 6
36 36 46 45 42 40 37 35 34 32 30 29 29 28 29 30 30 29 28 27 26 24 23 23 21 19 18 17 18 17 16 16 16 14 13 9 3 2 2 3 3 3 3
33 33 33 37 37 37 35 33 32 32 30 28 27 26 25 27 27 26 25 24 22 21 21 21 19 18 18 18 17 17 17 16 16 12 5 2 1 1 3 5 5 5 6
31 31 32 32 31 32 32 32 32 30 29 27 26 24 24 24 24 24 24 23 22 21 20 18 17 17 16 16 16 16 16 15 11 7 4 3 3 5 5 5 5 5 8
29 29 30 31 28 28 29 29 28 29 28 25 24 23 22 21 22 22 20 17 16 15 16 17 16 14 12 11 9 8 7 8 8 7 6 4 3 5 5 7 6 7 7
26 27 27 28 28 27 26 25 28 27 27 26 26 23 23 23 22 21 19 19 19 20 19 18 13 11 9 8 7 6 6 5 6 7 7 7 7 7 7 8 8 8 8
26 26 26 26 26 25 24 23 22 25 26 25 25 24 23 23 23 22 21 21 20 17 14 14 13 12 9 6 6 6 6 6 6 7 8 8 8 8 8 8 8 8 7
24 25 24 25 24 24 23 22 22 20 20 21 24 24 23 23 21 21 19 15 11 11 11 11 10 8 6 4 4 4 5 7 7 7 8 8 9 8 8 7 8 7 6
21 21 22 22 22 22 22 22 22 21 20 20 20 21 22 20 17 12 9 9 8 7 7 7 7 5 4 5 9 10 10 9 9 9 8 7 9 8 7 7 8 7 6
20 20 20 19 19 18 18 18 18 19 19 18 16 15 17 14 13 13 13 11 9 7 7 6 6 7 8 9 9 9 9 9 8 7 9 8 8 8 8 7 8 7 6
21 20 20 19 18 17 17 16 16 16 15 15 15 13 12 11 11 11 11 10 9 8 8 7 8 8 8 8 8 8 7 8 7 6 7 6 7 7 7 8 7 7 6
21 20 20 19 18 17 16 16 15 14 12 10 10 10 10 10 9 9 9 10 10 9 8 8 7 7 6 7 8 8 7 7 7 6 6 4 5 6 6 7 7 7 7
19 18 18 17 16 16 15 15 14 11 10 9 8 9 9 9 8 8 8 8 8 8 8 8 7 7 7 8 8 7 6 6 6 5 5 5 4 5 6 6 6 6 6
19 18 17 17 16 15 14 11 9 9 9 9 8 8 7 8 7 7 7 8 8 8 7 6 6 5 5 7 6 6 5 5 4 4 2 3 4 4 4 4 5 6 6
18 17 16 15 13 11 9 8 8 8 8 7 7 6 6 6 6 6 6 6 6 5 5 5 5 3 2 3 4 4 2 1 1 -0 2 2 3 2 3 3 4 4 5
17 16 14 12 11 10 9 9 8 7 7 7 6 6 5 5 5 5 5 4 4 4 4 4 3 2 2 2 2 2 -1 -1 -1 -2 -2 1 2 3 3 3 3 3 4

GFSGL_sfc_30mbdewp_123.txt.gz
Dewpoint
55 56 57 58 60 59 58 59 59 60 59 60 58 57 55 54 55 55 55 56 56 56 55 55 55 53 52 54 55 55 54 52 50 50 46 43 41 40 39 37 35 33 33
56 56 57 57 60 58 57 57 58 58 59 60 59 58 56 55 54 54 54 55 55 55 55 54 54 54 55 56 56 54 53 53 52 50 41 39 37 37 37 37 34 32 30
53 56 56 57 59 58 57 57 58 57 57 58 58 58 58 57 55 55 54 54 54 54 54 54 54 54 55 55 54 54 55 53 52 50 40 35 34 34 32 33 32 30 28
49 56 56 57 58 57 56 56 57 56 56 56 57 57 58 58 57 56 56 56 55 54 54 54 53 54 54 54 53 53 53 52 51 45 37 32 30 30 30 28 27 28 25
47 50 56 57 58 56 56 56 57 56 56 57 57 57 58 58 58 57 56 56 55 55 54 54 53 53 51 51 52 53 52 47 44 40 33 30 27 26 26 25 24 26 21
46 48 54 57 56 55 56 56 56 56 56 56 56 55 52 50 50 55 56 55 52 44 42 39 39 40 37 38 36 35 43 44 38 34 29 27 24 23 23 22 23 26 21
46 47 49 56 56 56 56 56 56 56 54 50 48 46 43 41 42 43 42 39 37 36 34 33 33 33 33 30 28 27 28 29 30 29 26 23 21 21 19 18 17 17 15
43 44 48 55 56 55 55 55 54 51 47 44 41 39 38 36 36 36 35 34 32 32 32 32 31 30 30 27 25 22 22 21 21 20 20 19 19 18 17 18 18 15 15
39 41 42 54 55 54 55 51 47 44 41 39 38 36 35 34 34 34 33 31 30 29 29 29 29 28 28 27 23 20 20 21 21 21 21 21 18 17 18 20 21 20 7
35 37 39 42 54 53 49 45 42 40 37 36 35 35 34 33 34 33 32 30 28 26 26 27 27 26 26 24 20 19 17 18 18 15 14 13 14 13 13 15 16 11 14
34 36 38 40 52 48 44 40 38 35 34 33 32 33 33 33 33 32 31 29 27 25 24 24 24 22 20 18 16 14 13 14 13 11 11 10 8 7 6 6 8 12 9
34 35 35 42 46 43 40 36 35 34 32 31 30 29 30 31 31 31 30 28 27 24 23 22 21 20 19 18 17 17 16 17 16 15 10 7 6 5 4 5 6 5 3
33 33 33 34 39 39 37 34 33 33 31 29 28 27 27 28 28 28 27 26 24 23 22 20 20 20 19 18 18 18 18 18 18 14 8 4 4 4 6 7 6 8 8
30 32 32 32 32 33 34 34 33 31 30 28 26 25 24 24 24 24 24 24 22 22 21 19 18 18 19 20 21 21 20 16 12 8 6 5 6 7 7 7 7 8 10
29 30 31 30 29 27 28 29 29 30 30 27 26 24 23 22 23 24 22 20 18 17 17 18 17 17 18 17 15 11 10 10 10 8 7 5 6 7 7 10 10 10 9
27 27 28 28 28 26 25 25 27 26 26 26 25 23 24 24 23 21 20 20 20 21 20 19 19 18 14 10 10 9 9 9 9 10 10 9 9 10 11 11 11 11 10
26 26 27 26 25 24 23 22 21 25 26 25 25 24 22 22 22 22 23 24 24 23 20 20 18 15 12 10 9 9 9 10 10 11 11 12 11 11 12 11 11 10 9
24 24 25 25 24 24 23 22 22 20 19 21 24 24 24 24 23 23 23 21 20 20 19 17 14 11 8 7 7 7 8 10 10 11 12 12 12 12 11 10 10 10 9
21 22 23 23 24 23 22 22 21 20 19 19 20 21 22 22 23 23 22 19 15 13 11 11 11 9 8 9 13 14 13 13 12 12 11 11 12 11 10 10 10 10 9
21 21 21 21 21 21 21 20 19 18 17 17 17 17 20 21 20 20 18 15 13 12 11 9 9 11 13 13 13 12 11 12 12 11 12 11 12 11 10 10 10 9 8
21 21 20 19 19 19 19 19 19 18 18 19 20 21 19 18 17 16 15 14 13 12 12 11 12 13 12 12 12 11 11 10 10 10 10 10 10 10 9 10 9 9 8
23 22 20 19 19 18 17 17 16 16 16 16 17 17 15 15 15 14 14 14 14 13 12 12 11 10 10 11 11 11 11 10 9 9 8 7 8 9 9 9 9 9 9
21 20 20 19 19 18 17 16 15 15 14 13 12 13 13 14 13 13 13 13 12 13 12 12 11 11 11 11 11 10 9 9 9 8 8 8 7 8 8 8 7 7 8
21 20 19 19 18 17 16 15 15 13 13 13 13 13 12 12 12 12 12 12 11 11 10 10 9 9 9 9 9 8 8 9 7 7 5 6 6 6 6 6 6 7 7
21 21 20 18 17 16 15 15 13 12 11 11 11 11 10 10 10 10 9 9 9 9 8 7 6 6 7 8 8 6 4 2 3 0 5 5 5 5 5 5 5 5 5
21 19 17 15 14 13 12 12 11 10 10 10 10 10 9 8 8 8 8 7 7 7 6 6 5 4 4 4 4 2 0 -0 1 -1 0 3 4 5 5 5 4 4 4

GFSGL_sfc_30mbdewp_126.txt.gz
Dewpoint
51 55 57 57 59 60 60 59 59 61 60 59 58 56 56 56 56 56 57 57 57 55 57 57 56 56 55 53 52 54 52 51 50 44 43 42 40 38 37 35 35 35 34
49 51 55 58 58 59 60 60 60 60 60 59 58 57 56 55 55 55 56 56 57 56 56 57 56 56 55 54 54 54 53 53 50 44 40 38 37 38 36 34 33 31 31
48 50 53 56 57 58 60 59 60 60 59 60 59 57 56 55 55 55 55 56 56 57 57 56 55 56 54 53 53 54 54 53 50 44 38 36 35 35 33 33 31 31 29
47 48 50 55 57 57 60 59 58 59 58 59 59 59 57 56 55 55 55 55 55 56 57 57 56 56 55 54 54 54 53 52 47 42 37 33 31 32 31 29 28 28 24
45 46 47 50 56 58 59 59 58 58 57 57 57 58 59 57 55 55 54 54 54 55 55 56 56 56 56 56 54 53 52 49 45 41 35 31 28 28 29 28 27 25 22
44 45 47 48 53 57 58 58 57 57 56 57 56 57 56 54 52 55 55 54 54 54 53 51 49 47 44 46 45 46 48 47 44 43 37 35 28 26 27 26 26 24 22
42 43 44 44 49 57 57 57 56 56 56 53 51 49 46 45 47 50 50 47 46 44 43 42 39 36 37 34 32 32 33 35 38 39 37 29 25 24 25 25 26 24 15
40 41 40 40 44 53 57 56 55 52 50 47 44 42 39 37 38 39 38 36 34 33 34 34 34 32 32 32 30 27 26 26 27 28 26 25 25 24 23 22 21 16 13
36 36 37 37 39 44 51 53 50 46 43 41 39 37 36 34 35 35 35 33 31 31 32 32 32 32 32 32 28 25 24 24 27 26 26 24 22 21 23 22 21 18 15
33 33 35 37 38 41 49 48 45 42 38 36 35 35 34 33 34 34 33 31 28 27 28 28 29 29 30 30 26 23 20 21 22 22 23 23 24 24 21 20 23 21 15
32 33 35 36 37 41 47 43 39 37 35 33 32 33 33 33 33 33 32 30 28 26 25 25 26 26 26 25 24 21 19 19 18 15 11 10 10 10 11 15 15 16 10
31 32 34 35 37 46 42 38 36 35 32 31 30 29 30 31 32 31 30 28 27 25 23 23 23 23 21 20 19 18 16 15 13 11 11 10 9 9 9 9 8 6 6
30 31 33 34 34 37 38 36 34 34 32 30 29 27 27 29 29 29 27 26 24 23 23 23 23 22 21 21 20 18 17 15 14 12 10 9 8 9 9 10 11 9 8
29 30 31 31 31 32 33 35 34 32 31 29 27 25 25 25 25 25 25 24 24 23 23 21 20 20 20 22 21 20 18 15 12 10 9 9 10 11 10 11 10 12 12
28 28 29 29 28 27 27 27 30 31 31 29 27 25 23 22 23 24 23 20 19 20 20 19 19 19 18 17 15 14 14 13 13 12 10 9 10 11 12 13 13 12 9
26 26 26 26 26 26 25 24 27 28 28 28 27 25 25 25 24 22 21 21 21 20 18 18 18 18 18 19 19 18 16 14 13 13 13 14 14 14 13 14 14 12 9
24 25 25 25 24 24 24 23 22 25 26 25 24 24 23 23 23 23 23 23 23 21 19 19 19 19 18 16 14 13 13 15 15 15 15 14 14 14 13 14 13 12 10
23 25 24 24 23 23 22 22 21 20 19 21 24 24 25 25 25 26 25 23 21 21 19 18 17 17 16 15 12 12 13 15 15 15 15 15 14 14 12 13 11 10 11
21 22 23 22 22 22 21 21 21 20 20 20 21 23 25 25 25 25 24 20 19 19 19 18 15 12 12 13 15 16 15 15 15 14 14 13 13 12 11 12 11 10 10
21 21 21 22 20 19 19 18 17 17 18 18 19 19 21 21 19 20 20 20 19 18 17 15 15 16 17 17 15 14 14 15 15 15 14 13 12 12 11 11 10 10 9
21 21 20 19 19 19 19 19 19 19 19 19 19 21 21 18 18 18 18 18 17 17 16 16 17 15 14 14 15 15 14 13 13 13 12 11 11 10 11 11 10 9 10
22 21 20 18 19 17 17 17 17 17 17 17 18 19 20 19 18 17 17 17 17 16 16 15 15 15 15 15 15 14 12 11 12 10 8 9 10 10 10 10 9 9 9
22 21 19 18 17 17 17 17 16 16 16 16 16 16 16 15 15 15 16 17 17 16 16 16 15 15 15 15 14 14 13 11 9 10 9 9 10 8 8 8 7 8 7
22 20 19 18 17 17 16 16 16 16 15 15 15 14 14 15 14 14 14 14 14 14 13 13 13 12 12 13 11 9 8 10 9 6 6 6 8 8 6 6 6 6 6
22 20 18 18 17 16 16 16 15 15 14 14 13 13 13 13 13 12 13 12 11 10 10 10 9 8 7 5 4 3 2 0 -0 3 6 6 5 5 5 5 6 5 5
20 20 19 18 17 17 16 15 14 14 13 13 12 12 11 11 11 10 10 10 10 10 10 8 6 6 6 3 2 1 -1 -0 -1 -3 0 4 5 6 6 4 3 4 4

GFSGL_sfc_30mbdewp_129.txt.gz
Dewpoint
48 49 50 52 57 58 59 60 61 61 60 59 58 57 57 57 57 58 58 58 57 58 58 57 57 57 56 56 55 53 51 49 48 42 42 40 39 38 37 36 35 33 33
48 48 48 51 54 58 58 59 61 61 60 59 58 57 56 56 57 56 56 57 57 56 57 57 57 57 55 56 56 54 53 52 49 42 39 38 36 36 35 33 33 33 32
45 45 47 48 50 55 58 59 60 61 60 59 58 56 56 56 56 56 56 56 57 56 56 57 57 56 55 56 56 55 53 51 48 43 39 37 35 35 33 32 31 30 31
45 45 45 47 48 49 54 58 59 61 60 59 58 57 56 56 55 55 55 56 56 57 56 56 56 56 56 56 55 54 52 49 46 42 37 34 33 33 32 28 27 27 25
42 43 44 45 46 47 50 57 59 60 60 60 59 58 57 56 55 55 55 55 55 56 56 56 56 56 56 56 55 53 50 46 42 39 35 32 30 30 30 30 26 25 22
40 41 42 43 42 43 48 52 58 59 59 58 59 58 58 56 55 54 55 54 54 54 54 55 55 55 55 55 55 53 50 46 42 40 38 34 31 32 29 29 25 23 23
38 38 38 39 39 39 41 45 57 58 57 56 55 54 52 50 50 52 53 53 53 52 53 49 44 47 47 45 42 41 41 43 43 41 40 35 31 30 30 28 28 27 22
36 35 35 35 36 38 39 43 51 55 54 51 49 47 45 41 43 45 44 41 39 37 38 39 40 38 39 40 40 35 32 33 35 35 35 31 29 30 30 29 25 16 13
32 31 32 33 34 36 38 40 45 49 47 45 42 41 40 36 36 37 39 35 33 32 33 33 33 34 34 37 34 30 29 28 31 31 30 30 30 29 27 23 20 20 21
29 30 31 32 34 36 37 39 44 46 42 39 37 36 35 34 35 35 35 32 30 29 30 31 32 32 32 33 31 28 25 25 26 26 26 27 27 27 26 25 24 23 20
28 29 31 32 34 35 37 39 42 39 37 35 33 33 33 34 34 33 32 31 29 28 27 27 28 31 31 31 31 28 24 23 23 22 21 21 21 21 18 15 19 22 15
27 29 30 32 33 34 37 41 39 36 34 32 31 30 31 32 32 31 30 29 28 26 25 25 26 26 26 26 24 24 22 22 21 19 18 16 14 12 11 9 9 9 9
27 29 29 31 31 32 35 36 35 35 33 31 30 28 28 29 30 29 28 27 26 24 25 26 26 25 24 23 22 20 18 16 15 14 13 10 10 11 11 10 9 7 7
26 28 28 29 28 28 30 33 33 33 32 31 29 27 26 26 25 26 26 26 26 25 25 23 22 22 21 20 18 17 17 16 15 13 12 12 12 13 13 14 15 14 9
25 27 27 26 26 26 27 28 31 31 32 31 29 27 25 23 24 25 25 24 22 21 22 22 20 19 17 16 16 18 19 17 14 15 15 15 14 13 13 15 15 10 8
24 25 25 25 25 25 25 25 29 29 28 28 28 27 26 26 26 25 23 23 22 22 20 18 18 17 17 18 18 19 19 16 17 17 17 16 15 15 15 14 13 10 7
23 24 24 24 23 22 22 23 21 25 26 27 27 26 25 25 25 24 24 23 23 21 19 19 19 18 18 18 18 18 18 18 19 17 16 16 16 15 14 13 12 10 9
22 23 22 22 22 21 21 21 22 21 21 22 25 25 25 25 25 25 24 22 20 20 19 18 17 18 18 18 18 17 17 18 17 16 15 15 15 14 12 11 10 9 9
21 22 21 20 20 19 20 20 21 21 21 22 23 25 26 26 25 24 23 19 18 17 18 17 17 17 17 18 18 17 16 15 15 14 13 12 12 13 11 11 10 9 9
20 20 20 20 19 18 19 19 19 19 19 19 19 19 21 20 18 18 19 19 18 17 17 17 18 18 17 16 16 16 15 15 14 13 13 12 11 12 10 10 9 9 10
20 20 19 18 18 18 19 19 18 18 17 17 17 19 20 18 17 17 18 18 18 18 18 17 16 16 16 16 16 16 15 14 13 12 12 10 11 11 10 10 10 10 8
20 18 18 17 17 17 17 18 17 17 17 16 16 17 18 17 17 16 17 17 18 18 18 17 17 18 17 16 15 14 13 12 11 10 10 11 11 10 9 8 9 7 9
20 18 18 17 17 17 16 16 16 15 15 15 15 15 16 15 15 15 15 16 16 16 17 17 16 16 16 15 15 13 11 10 9 9 9 9 8 8 7 7 7 6 7
19 18 17 17 17 16 15 15 15 15 15 14 14 14 13 13 13 13 13 13 13 13 12 12 13 12 10 9 9 9 8 7 7 6 7 7 6 5 5 5 6 5 5
19 18 17 17 16 15 14 14 14 13 13 13 13 12 12 12 12 11 11 11 10 10 10 9 8 6 5 4 3 3 3 2 2 3 5 5 4 4 4 5 4 4 3
19 18 17 16 15 15 14 14 13 13 12 12 12 11 11 11 11 11 10 10 9 8 8 7 5 3 2 1 0 0 -1 -3 -4 -0 2 5 5 3 2 2 2 3 4

GFSGL_sfc_30mbdewp_132.txt.gz
Dewpoint
47 47 47 48 49 52 57 58 59 60 61 60 60 60 60 60 60 60 59 59 58 58 59 58 58 58 57 56 55 52 50 49 48 40 40 41 40 39 38 37 36 35 35
45 45 46 47 48 48 49 54 59 59 61 60 59 59 58 58 58 58 58 58 58 57 57 57 57 58 57 56 55 53 52 51 48 41 38 37 36 36 35 34 34 33 33
44 45 45 46 46 47 47 49 53 58 59 60 59 58 57 57 57 57 56 56 56 56 57 57 57 57 57 56 56 55 54 51 48 40 38 38 35 34 32 32 32 32 32
42 42 42 44 44 45 44 46 50 54 58 60 59 58 57 56 56 56 56 56 56 56 57 57 57 57 56 56 56 56 55 51 47 43 38 36 34 33 32 29 28 30 29
40 39 39 40 41 41 41 42 44 48 56 59 59 58 57 56 55 55 55 55 55 56 56 56 56 57 56 56 56 54 53 49 46 40 37 33 31 30 29 30 27 26 26
37 37 37 36 36 37 38 40 41 46 50 59 59 58 57 56 55 54 55 55 55 55 54 55 55 55 55 55 55 52 50 47 43 41 39 35 33 32 32 29 25 24 25
35 34 33 33 34 35 36 38 40 42 45 53 58 58 57 55 54 54 53 54 54 54 54 53 52 52 53 50 51 50 47 45 44 42 39 38 33 34 32 29 28 28 24
31 30 30 31 32 33 35 37 38 40 43 51 55 54 53 49 49 52 51 48 45 43 43 46 48 47 47 45 40 39 39 40 42 43 41 39 37 35 34 33 30 23 24
26 27 29 30 31 33 34 36 37 38 40 46 48 48 46 42 42 45 45 40 37 35 35 37 39 39 39 39 38 35 33 31 34 35 34 34 34 34 30 27 25 23 20
25 26 28 30 31 32 34 35 36 38 40 41 39 40 41 39 37 38 40 36 34 32 32 32 34 35 36 36 36 34 31 30 30 30 30 30 30 30 31 30 27 24 19
24 26 28 29 31 33 34 34 36 39 39 37 35 34 35 35 35 35 36 35 32 30 29 30 31 33 33 33 33 33 28 27 26 26 25 25 25 25 26 28 28 26 22
24 26 27 29 30 30 30 33 37 37 36 34 33 31 32 33 33 33 33 32 30 29 27 28 29 31 30 28 28 28 27 26 25 24 23 22 21 20 21 21 20 14 13
24 25 27 27 28 28 28 30 33 35 33 32 32 30 29 30 31 31 30 29 27 26 27 28 28 27 26 26 25 25 25 24 23 21 19 19 19 15 9 8 8 8 9
23 24 25 26 26 27 27 28 30 33 33 32 31 30 28 28 27 27 27 27 27 27 26 24 23 23 23 22 22 22 22 21 20 18 17 17 14 13 10 10 10 10 9
22 23 24 24 25 25 25 26 27 29 32 32 31 29 27 25 26 27 27 26 25 23 22 22 21 20 18 17 17 18 19 18 16 14 14 14 14 14 15 14 13 11 7
21 22 22 23 23 22 22 23 26 29 30 31 29 28 28 28 28 28 27 25 23 23 22 20 19 19 18 18 18 18 18 17 16 16 15 15 16 16 15 15 13 11 9
21 21 20 21 21 21 20 21 21 23 28 29 29 28 28 28 27 27 26 25 25 23 20 19 19 19 18 18 18 18 18 19 20 18 18 17 16 15 13 13 11 11 11
21 20 19 19 19 19 20 21 21 21 21 23 26 27 27 26 26 26 25 24 21 20 19 18 18 18 18 18 18 18 18 18 18 18 18 17 15 14 12 11 10 10 10
19 20 20 19 20 20 19 19 19 20 21 22 23 25 26 26 24 23 22 19 18 17 18 17 18 18 18 18 18 18 18 17 17 17 16 14 13 12 11 11 10 10 10
20 19 19 19 19 19 19 18 17 17 17 18 18 18 20 19 17 18 18 18 17 17 18 17 18 18 17 17 17 16 16 16 15 14 14 13 13 12 11 10 10 10 9
19 18 18 18 18 18 18 18 18 17 16 16 17 18 19 17 17 17 17 17 17 16 17 17 17 17 17 17 17 16 15 15 14 14 13 13 12 11 11 11 10 9 7
19 18 18 17 17 16 16 17 16 16 15 15 16 17 17 17 16 16 16 16 17 18 18 18 17 17 17 16 15 15 14 13 13 13 13 12 12 12 11 10 9 9 7
18 18 17 17 16 16 15 15 15 15 14 14 14 14 14 14 14 14 14 15 16 16 17 16 15 15 15 15 14 13 12 12 12 13 11 11 10 9 10 7 7 8 7
17 17 16 16 15 15 14 14 14 13 13 13 12 12 12 11 11 11 12 12 11 11 12 12 11 11 10 10 10 9 9 9 10 9 9 8 7 7 7 6 5 5 4
17 17 16 15 14 14 13 13 13 12 12 12 11 11 11 11 10 10 10 10 10 9 8 8 7 7 6 6 6 6 6 5 6 7 6 6 5 5 5 4 3 3 4
17 16 15 15 14 14 13 12 12 11 11 11 10 10 10 10 10 10 9 9 8 7 6 5 4 3 3 2 1 0 1 3 4 5 6 6 5 3 3 2 2 3 2